Weather History for Devils Lake, ND

Change the Weather History Date:

Tuesday, February 5, 2013

  Actual Average Record
Temperature  
Mean Temperature 14 °F -  
Max Temperature 26 °F 19 °F 54 °F (1963)
Min Temperature 3 °F 0 °F -27 °F (2007)
Degree Days  
Heating Degree Days 50    
Moisture  
Dew Point 7 °F    
Average Humidity 88    
Maximum Humidity 100    
Minimum Humidity 72    
Precipitation  
Precipitation 0.00 in - - ()
Sea Level Pressure  
Sea Level Pressure 29.87 in    
Wind  
Wind Speed 11 mph (NE)    
Max Wind Speed 22 mph    
Max Gust Speed 23 mph    
Visibility 10 miles    
Events      
Averages and records for this station are not official NWS values.
T = Trace of Precipitation, MM = Missing Value Source: NWS Daily Summary

Daily Weather History Graph

Daily Weather History Graph

Search for Another Location

Airport:

Trip Planner

Search our weather history database for the weather conditions in past years. The results will help you decide how hot, cold, wet, or windy it might be!

Date:

Astronomy

Feb. 05, 2013 Rise Set
Actual Time 7:57 AM CST 5:42 PM CST
Civil Twilight 7:24 AM CST 6:15 PM CST
Nautical Twilight 6:47 AM CST 6:52 PM CST
Astronomical Twilight 6:11 AM CST 7:28 PM CST
Moon 3:49 AM CST (2/5) 12:52 PM CST (2/5)
Length of Visible Light 10h 50m
Length of Day
9h 44m
Waning Crescent, 26% of the Moon is Illuminated
Feb 5
Waning Crescent
Feb 10
New
Feb 17
First Quarter
Feb 25
Full
Mar 4
Last Quarter

Hourly Weather History & Observations

Time (CST) Temp. Windchill Dew Point Humidity Pressure Visibility Wind Dir Wind Speed Gust Speed Precip Events Conditions
12:15 AM 26.6 °F 17.5 °F 24.8 °F 93% 29.57 in 10.0 mi NW 9.2 mph - N/A   Overcast
12:35 AM 24.8 °F 11.9 °F 19.4 °F 80% 29.59 in 7.0 mi North 16.1 mph 19.6 mph N/A   Overcast
12:55 AM 21.2 °F 8.3 °F 21.2 °F 100% 29.60 in 7.0 mi North 13.8 mph - N/A   Overcast
1:15 AM 21.2 °F 6.8 °F 19.4 °F 93% 29.61 in 7.0 mi North 17.3 mph - N/A   Overcast
1:35 AM 19.4 °F 4.5 °F 17.6 °F 93% 29.62 in 6.0 mi North 17.3 mph - N/A   Overcast
1:55 AM 17.6 °F 2.2 °F 15.8 °F 93% 29.64 in 5.0 mi North 17.3 mph - N/A   Overcast
2:15 AM 17.6 °F 2.2 °F 17.6 °F 100% 29.65 in 8.0 mi North 17.3 mph - N/A   Overcast
2:35 AM 15.8 °F -0.2 °F 15.8 °F 100% 29.66 in 10.0 mi NNE 17.3 mph - N/A   Overcast
2:55 AM 15.8 °F 0.3 °F 14.0 °F 93% 29.68 in 10.0 mi NNE 16.1 mph - N/A   Overcast
3:15 AM 15.8 °F -1.1 °F 10.4 °F 79% 29.70 in 5.0 mi North 19.6 mph - N/A   Overcast
3:35 AM 14.0 °F -3.0 °F 8.6 °F 79% 29.71 in 7.0 mi North 18.4 mph - N/A   Overcast
3:55 AM 12.2 °F -6.7 °F 8.6 °F 85% 29.72 in 8.0 mi North 21.9 mph - N/A   Overcast
4:15 AM 12.2 °F -5.3 °F 5.0 °F 73% 29.73 in 6.0 mi NNE 18.4 mph - N/A   Overcast
4:35 AM 10.4 °F -7.7 °F 6.8 °F 85% 29.75 in 10.0 mi NNE 18.4 mph - N/A   Overcast
4:55 AM 10.4 °F -7.2 °F 8.6 °F 92% 29.77 in 10.0 mi North 17.3 mph 23.0 mph N/A   Overcast
5:15 AM 10.4 °F -7.2 °F 8.6 °F 92% 29.79 in 10.0 mi North 17.3 mph - N/A   Overcast
5:35 AM 8.6 °F -8.3 °F 6.8 °F 92% 29.80 in 10.0 mi NNE 15.0 mph - N/A   Overcast
5:55 AM 8.6 °F -7.7 °F 6.8 °F 92% 29.81 in 10.0 mi NNE 13.8 mph - N/A   Overcast
6:15 AM 8.6 °F -7.7 °F 5.0 °F 85% 29.82 in 10.0 mi NNE 13.8 mph - N/A   Overcast
6:35 AM 6.8 °F -11.3 °F 5.0 °F 92% 29.83 in 10.0 mi North 16.1 mph - N/A   Overcast
6:55 AM 6.8 °F -11.3 °F 1.4 °F 79% 29.85 in 10.0 mi North 16.1 mph - N/A   Overcast
7:15 AM 5.0 °F -13.0 °F -0.4 °F 78% 29.86 in 10.0 mi North 15.0 mph - N/A   Overcast
7:35 AM 5.0 °F -11.6 °F 1.4 °F 85% 29.87 in 10.0 mi North 12.7 mph - N/A   Overcast
7:55 AM 5.0 °F -12.3 °F 3.2 °F 92% 29.89 in 10.0 mi North 13.8 mph - N/A   Overcast
8:15 AM 3.2 °F -11.3 °F 3.2 °F 100% 29.90 in 10.0 mi North 9.2 mph - N/A   Overcast
8:35 AM 3.2 °F -10.3 °F -0.4 °F 85% 29.91 in 10.0 mi North 8.1 mph - N/A   Overcast
8:55 AM 3.2 °F -10.3 °F 1.4 °F 92% 29.92 in 10.0 mi North 8.1 mph - N/A   Overcast
9:15 AM 5.0 °F -5.6 °F 3.2 °F 92% 29.93 in 10.0 mi North 5.8 mph - N/A   Overcast
9:35 AM 5.0 °F -6.9 °F 3.2 °F 92% 29.93 in 10.0 mi North 6.9 mph - N/A   Overcast
9:55 AM 5.0 °F -9.1 °F 3.2 °F 92% 29.94 in 10.0 mi North 9.2 mph - N/A   Overcast
10:15 AM 5.0 °F -8.1 °F 1.4 °F 85% 29.95 in 10.0 mi North 8.1 mph - N/A   Overcast
10:35 AM 5.0 °F -6.9 °F -0.4 °F 78% 29.97 in 10.0 mi North 6.9 mph - N/A   Overcast
10:55 AM 5.0 °F -9.1 °F 3.2 °F 92% 29.97 in 10.0 mi NNE 9.2 mph - N/A   Overcast
11:15 AM 5.0 °F -9.1 °F 3.2 °F 92% 29.98 in 10.0 mi North 9.2 mph - N/A   Overcast
11:35 AM 5.0 °F -8.1 °F 1.4 °F 85% 29.98 in 8.0 mi NE 8.1 mph - N/A   Overcast
11:55 AM 5.0 °F -6.9 °F -0.4 °F 78% 29.97 in 10.0 mi NE 6.9 mph - N/A   Overcast
12:15 PM 5.0 °F -5.6 °F 3.2 °F 92% 29.97 in 10.0 mi NE 5.8 mph - N/A   Overcast
12:35 PM 5.0 °F -6.9 °F 3.2 °F 92% 29.97 in 10.0 mi NNE 6.9 mph - N/A   Overcast
12:55 PM 6.8 °F - -0.4 °F 72% 29.97 in 10.0 mi Calm Calm - N/A   Overcast
1:15 PM 6.8 °F - 3.2 °F 85% 29.97 in 10.0 mi Calm Calm - N/A   Overcast
1:35 PM 6.8 °F - 3.2 °F 85% 29.97 in 10.0 mi Calm Calm - N/A   Overcast
1:55 PM 8.6 °F - 6.8 °F 92% 29.97 in 10.0 mi Calm Calm - N/A   Overcast
2:15 PM 8.6 °F 0.1 °F 5.0 °F 85% 29.97 in 10.0 mi SW 4.6 mph - N/A   Overcast
2:35 PM 8.6 °F - 5.0 °F 85% 29.96 in 10.0 mi Calm Calm - N/A   Overcast
2:55 PM 8.6 °F 2.0 °F 5.0 °F 85% 29.97 in 10.0 mi WSW 3.5 mph - N/A   Overcast
3:15 PM 8.6 °F 0.1 °F 3.2 °F 79% 29.96 in 10.0 mi SW 4.6 mph - N/A   Overcast
3:35 PM 8.6 °F - 3.2 °F 79% 29.96 in 10.0 mi Calm Calm - N/A   Overcast
3:55 PM 10.4 °F 4.0 °F 5.0 °F 79% 29.96 in 10.0 mi SW 3.5 mph - N/A   Overcast
4:15 PM 10.4 °F 4.0 °F 6.8 °F 85% 29.96 in 10.0 mi South 3.5 mph - N/A   Overcast
4:35 PM 10.4 °F 2.2 °F 6.8 °F 85% 29.96 in 10.0 mi SSE 4.6 mph - N/A   Overcast
4:55 PM 10.4 °F 4.0 °F 6.8 °F 85% 29.95 in 10.0 mi SSE 3.5 mph - N/A   Overcast
5:15 PM 10.4 °F 2.2 °F 6.8 °F 85% 29.95 in 10.0 mi SSE 4.6 mph - N/A   Overcast
5:35 PM 10.4 °F -0.4 °F 6.8 °F 85% 29.94 in 10.0 mi South 6.9 mph - N/A   Overcast
5:55 PM 10.4 °F -1.5 °F 8.6 °F 92% 29.95 in 10.0 mi South 8.1 mph - N/A   Overcast
6:15 PM 12.2 °F 2.9 °F 8.6 °F 85% 29.94 in 10.0 mi South 5.8 mph - N/A   Overcast
6:35 PM 10.4 °F 0.8 °F 8.6 °F 92% 29.93 in 10.0 mi South 5.8 mph - N/A   Overcast
6:55 PM 10.4 °F -1.5 °F 8.6 °F 92% 29.93 in 10.0 mi South 8.1 mph - N/A   Overcast
7:15 PM 12.2 °F -0.2 °F 8.6 °F 85% 29.93 in 10.0 mi South 9.2 mph - N/A   Overcast
7:35 PM 12.2 °F 1.7 °F 6.8 °F 79% 29.93 in 10.0 mi SSW 6.9 mph - N/A   Overcast
7:55 PM 12.2 °F 1.7 °F 8.6 °F 85% 29.94 in 10.0 mi South 6.9 mph - N/A   Overcast
8:15 PM 12.2 °F 2.9 °F 8.6 °F 85% 29.93 in 10.0 mi South 5.8 mph - N/A   Overcast
8:35 PM 12.2 °F 2.9 °F 10.4 °F 92% 29.93 in 10.0 mi South 5.8 mph - N/A   Overcast
8:55 PM 12.2 °F 1.7 °F 10.4 °F 92% 29.92 in 10.0 mi SSE 6.9 mph - N/A   Overcast
9:15 PM 12.2 °F 2.9 °F 8.6 °F 85% 29.92 in 10.0 mi SSE 5.8 mph - N/A   Overcast
9:35 PM 12.2 °F 1.7 °F 10.4 °F 92% 29.92 in 10.0 mi SSE 6.9 mph - N/A   Overcast
9:55 PM 12.2 °F 2.9 °F 10.4 °F 92% 29.92 in 10.0 mi SSE 5.8 mph - N/A   Overcast
10:15 PM 14.0 °F 5.1 °F 10.4 °F 86% 29.91 in 10.0 mi SE 5.8 mph - N/A   Overcast
10:35 PM 14.0 °F 5.1 °F 10.4 °F 86% 29.92 in 10.0 mi South 5.8 mph - N/A   Overcast
10:55 PM 14.0 °F 6.5 °F 10.4 °F 86% 29.91 in 10.0 mi South 4.6 mph - N/A   Overcast
11:15 PM 12.2 °F -0.2 °F 10.4 °F 92% 29.90 in 10.0 mi South 9.2 mph - N/A   Mostly Cloudy
11:35 PM 10.4 °F 2.2 °F 10.4 °F 100% 29.89 in 10.0 mi South 4.6 mph - N/A   Partly Cloudy
11:55 PM 12.2 °F 4.3 °F 10.4 °F 92% 29.90 in 10.0 mi SSW 4.6 mph - N/A   Mostly Cloudy